This is the latest recevied weather packets stored in our database for station/object EA7KZ-10. If no packets are shown the sender has not sent any weather packets the latest 10 day(s).
| Time | Temp. | Humidity | Pressure | Rain* | Wind** | Luminosity | Snow |
|---|---|---|---|---|---|---|---|
| 1778324682 | 18.33° C | 51% | 1011.6 hPa | - | - | - | - |
| 1778324083 | 18.33° C | 52% | 1011.6 hPa | - | - | - | - |
| 1778323482 | 18.33° C | 54% | 1011.6 hPa | - | - | - | - |
| 1778322882 | 18.33° C | 54% | 1011.4 hPa | - | - | - | - |
| 1778322282 | 18.33° C | 54% | 1011.3 hPa | - | - | - | - |
| 1778321683 | 18.33° C | 53% | 1011.5 hPa | - | - | - | - |
| 1778321083 | 18.33° C | 53% | 1011.4 hPa | - | - | - | - |
| 1778320483 | 18.33° C | 52% | 1011.3 hPa | - | - | - | - |
| 1778319882 | 18.89° C | 51% | 1010.9 hPa | - | - | - | - |
| 1778319283 | 18.89° C | 53% | 1010.7 hPa | - | - | - | - |
| 1778318683 | 18.33° C | 55% | 1010.8 hPa | - | - | - | - |
| 1778318083 | 18.33° C | 56% | 1010.7 hPa | - | - | - | - |
| 1778317482 | 18.33° C | 56% | 1010.5 hPa | - | - | - | - |
| 1778316882 | 18.33° C | 58% | 1010.6 hPa | - | - | - | - |
| 1778316282 | 17.78° C | 60% | 1010.7 hPa | - | - | - | - |
| 1778315682 | 17.22° C | 61% | 1010.9 hPa | - | - | - | - |
| 1778314482 | 17.22° C | 59% | 1010.8 hPa | - | - | - | - |
| 1778313883 | 16.67° C | 61% | 1010.9 hPa | - | - | - | - |
| 1778313283 | 16.67° C | 61% | 1010.9 hPa | - | - | - | - |
| 1778312682 | 16.67° C | 62% | 1010.8 hPa | - | - | - | - |
| 1778312082 | 16.67° C | 63% | 1010.7 hPa | - | - | - | - |
| 1778310882 | 16.11° C | 63% | 1010.6 hPa | - | - | - | - |
| 1778310282 | 16.67° C | 66% | 1010.5 hPa | - | - | - | - |
| 1778309682 | 16.11° C | 65% | 1010.2 hPa | - | - | - | - |
| 1778309082 | 16.11° C | 64% | 1010.3 hPa | - | - | - | - |
* Rain since midnight (hover to see other rain measurements)
** Current wind speed in m/s (hover to see current wind gust speed)